Location: Leipzig
(51.3392°N, 12.3528°E)
Time: 21:48:35
(UTC+01:00)

Envisat - Visible Passes

Search period start: 20 November 2017 00:00
Search period end: 30 November 2017 00:00
Orbit: 764 x 766 km, 98.2° (Epoch: 20 November)

Date Brightness Start Highest point End Pass type
(mag) Time Alt. Az. Time Alt. Az. Time Alt. Az.
20 Nov 5.0 17:32:37 10° NE 17:32:37 10° NE 17:32:53 10° NE visible
20 Nov 4.7 19:12:49 22° N 19:12:49 22° N 19:14:40 10° N visible
20 Nov 5.9 20:53:02 11° NW 20:53:02 11° NW 20:53:21 10° NW visible
21 Nov 4.7 18:35:46 19° NNE 18:35:46 19° NNE 18:37:33 10° N visible
21 Nov 5.4 20:15:59 16° NNW 20:15:59 16° NNW 20:17:03 10° NNW visible
22 Nov 4.8 17:58:42 14° NNE 17:58:42 14° NNE 18:00:00 10° NNE visible
22 Nov 5.0 19:38:55 20° NNW 19:38:55 20° NNW 19:40:23 10° NNW visible
23 Nov 4.7 19:01:51 20° N 19:01:51 20° N 19:03:28 10° N visible
23 Nov 5.8 20:42:03 12° NNW 20:42:03 12° NNW 20:42:24 10° NNW visible
24 Nov 4.8 18:24:47 16° NNE 18:24:47 16° NNE 18:26:15 10° N visible
24 Nov 5.3 20:04:59 16° NNW 20:04:59 16° NNW 20:05:59 10° NNW visible
25 Nov 5.0 17:47:43 12° NNE 17:47:43 12° NNE 17:48:28 10° NNE visible
25 Nov 5.0 19:27:55 18° N 19:27:55 18° N 19:29:14 10° N visible
26 Nov 4.8 18:50:50 18° N 18:50:50 18° N 18:52:14 10° N visible
26 Nov 5.7 20:31:03 12° NNW 20:31:03 12° NNW 20:31:25 10° NNW visible
27 Nov 4.9 18:13:45 14° NNE 18:13:45 14° NNE 18:14:54 10° N visible
27 Nov 5.3 19:53:58 15° NNW 19:53:58 15° NNW 19:54:53 10° NNW visible
28 Nov 5.0 17:36:40 10° NNE 17:36:40 10° NNE 17:36:42 10° NNE visible
28 Nov 5.0 19:16:53 17° N 19:16:53 17° N 19:18:04 10° N visible
29 Nov 6.0 07:13:31 10° ENE 07:15:41 13° E 07:17:50 10° ESE visible
29 Nov 4.9 18:39:48 16° N 18:39:48 16° N 18:40:58 10° N visible
29 Nov 5.7 20:20:00 12° NNW 20:20:00 12° NNW 20:20:23 10° NNW visible
